Weather in Erdemli

Turkey     36°36′28″N   34°18′49″E
temp.,
°C
wind,
m/s
gust,
m/s
humid.,
%
clouds,
%
prec.,
mm/h
press.,
hPa
HPBL,
m
16 june, wed
wed1600:00+21wsw45730 0.0 1010299
03:00+20wsw12690 0.0 1009236
06:00+20nw11720 0.0 1009275
09:00+22ssw34640 0.0 1010942
12:00+24ssw109563 0.0 10101415
15:00+25ssw1212490 0.0 10091349
18:00+24sw1211520 0.0 1008780
21:00+22wsw44580 0.0 1010201
17 june, thu
thu1700:00+22nne67630 0.0 1012292
03:00+21nne67610 0.0 1012315
06:00+21ne45710 0.0 1013307
09:00+23ene44610 0.0 1014684
12:00+25sse32530 0.0 1014797
15:00+25ssw65560 0.0 1013787
18:00+25sw67550 0.0 1013510
21:00+22wsw56670 0.0 1013238
18 june, fri
fri1800:00+22sw22640 0.0 1013172
03:00+22nne45680 0.0 1012267
06:00+22ne44690 0.0 1012306
09:00+24ene44670 0.0 1012441
12:00+26ese32610 0.0 1012547
15:00+27s43570 0.0 1010589
18:00+26sw66570 0.0 1009427
21:00+23sw56750 0.0 1010228
19 june, sat
sat1900:00+23sse11770 0.0 1010168
03:00+23ne34830 0.0 1010280
06:00+23ne44840 0.0 1010354
09:00+24ene44760 0.0 1010461
12:00+26ese32670 0.0 1009475
15:00+25s337123 0.0 1008451
18:00+26ssw77650 0.0 1008423
21:00+24sw45790 0.0 1008163
20 june, sun
sun2000:00+23nne23821 0.0 1009160
03:00+22ne45885 0.0 1009321
06:00+23ne458670 0.0 1010491
09:00+24ene437450 0.1 1011723
12:00+26ese32670 0.0 1010593
15:00+26s33660 0.0 1010557
18:00+27ssw66520 0.0 1009508
21:00+23sw45730 0.0 1010221